www.pogodaiklimat.ru

Погода и климат >> Архив погоды >> Вьетнам >> Плейку


ПОГОДА в Плейку

  • Прогноз погоды в Плейку
  • Монитор погоды в Плейку

АРХИВ ПОГОДЫ в Плейку

Время (UTC), дата Ветер
(напр.,м/с)
 
Видим.   Явления Облачность Т
(С)
Тd
(С)
f
(%)
Тe
(С)
Тes
(С)
Комфортность P
(гПа)
Po
(гПа)
Тmin
(С)
Tmax
(С)
R
(мм)
R24
(мм)
S
(см)
00 11.06 З 3 20 км {дождь} 10/10 300 м
[Cu Sc]
+23.0 +22.1 95 +31 +31 очень
душно
1009.8 923.0 +22.1 0.1
03 11.06 З 4 10 км слаб. ливневой дождь 9/9 300 м
[Cu med, cong]
+24.1 +22.3 90 +31 +33 очень
душно
1010.6 923.8
06 11.06 З 4 20 км {ливн. осадки, дождь} 9/9 600 м
[Cu med, cong]
+25.8 +22.5 82 +34 +35 очень
душно
1007.9 922.1 0.0
09 11.06 З 3 20 км 8/6 600 м
[Cu med, cong Ac lent]
+28.1 +22.2 70 +37 +38 очень
душно
1005.8 920.6
12 11.06 З 2 20 км 5/3
[Sc Ac lent]
+24.5 +22.4 88 +32 +32 очень
душно
1008.2 921.8 +28.3 0.0
15 11.06 З 2 20 км 5/1 600 м
[Cu med, cong Ac trans]
+24.2 +22.7 91 +32 +32 очень
душно
1010.8 924.0
18 11.06 З 2 20 км 8/8 300 м
[Cu Sc]
+23.7 +22.8 95 +31 +31 очень
душно
1009.6 922.8
21 11.06 З 1 20 км {ливн. осадки} 5/5 300 м
[Sc diur, vesp]
+21.5 +21.2 98 +27 +27 душно 1008.9 921.9
00 12.06 З 3 20 км {ливн. осадки} 9/9
[Cu Sc]
+23.3 +21.4 89 +31 +32 очень
душно
1010.3 923.5 +21.5 8
03 12.06 З 3 20 км 9/9 600 м
[Cu Sc]
+25.9 +21.2 75 +33 +34 очень
душно
1010.9 924.7
06 12.06 З 4 20 км 8/8 600 м
[Cu Sc]
+28.0 +20.7 65 +35 +38 очень
душно
1008.5 922.9 8
09 12.06 З 3 20 км 8/8 600 м
[Cb cap]
+28.2 +21.8 68 +36 +37 очень
душно
1006.6 921.4
12 12.06 З 2 20 км 3/3 1000 м
[Sc]
+25.7 +21.3 77 +33 +33 очень
душно
1007.5 921.7 +28.7 8
15 12.06 З 1 20 км 3/0
[Ci fib]
+24.6 +21.7 84 +31 +31 очень
душно
1010.6 923.8
18 12.06 З 1 20 км 4/0
[Ac lent]
+23.6 +21.4 87 +30 +30 очень
душно
1009.4 922.6
21 12.06 З 4 20 км 9/9 300 м
[Cu Sc]
+22.8 +22.2 96 +31 +31 очень
душно
1010.0 922.6
00 13.06 З 2 20 км 9/9 600 м
[Cu Sc]
+23.0 +22.1 95 +31 +32 очень
душно
1010.5 923.7 +22.6
03 13.06 З 2 20 км 9/9 600 м
[Cu Sc]
+25.2 +22.0 82 +32 +34 очень
душно
1010.4 924.2
06 13.06 З 3 20 км 6/5 600 м
[Cu med, cong]
+29.1 +22.1 66 +38 +45 очень
душно
1006.8 922.2
09 13.06 З 4 20 км 8/6 600 м
[Cu Sc Ci fib]
+29.5 +22.4 66 +39 +40 очень
душно
1005.2 920.6
12 13.06 З 2 20 км 8/5 600 м
[Cu Sc Cs]
+26.1 +23.3 85 +35 +35 очень
душно
1008.2 922.4 +30.3
15 13.06 З 2 20 км 3/0
[Ac lent]
+24.7 +22.7 89 +33 +33 очень
душно
1011.4 924.6
18 13.06 З 1 20 км 6/3 600 м
[Cu hum Ac trans]
+23.9 +22.7 93 +31 +31 очень
душно
1009.7 922.9
21 13.06 З 3 10 км в посл. час ливневой дождь 9/9 300 м
[Cb cap]
+22.7 +22.2 97 +31 +31 очень
душно
1009.0 922.0
00 14.06 З 4 500 м туман {ливн. осадки} ?/? +22.6 +22.3 98 +30 +30 очень
душно
1010.4 923.0 +22.3 6
03 14.06 З 2 500 м слаб. дождь {туман} туман ?/? +22.8 +22.5 98 +31 +31 очень
душно
1011.3 923.9
06 14.06 З 4 20 км {дождь, туман} 9/9 300 м
[Cu Sc]
+26.4 +22.5 79 +35 +36 очень
душно
1007.9 922.1 0.3
09 14.06 З 3 20 км 9/6 600 м
[Cb cap Ac lent Cs]
+26.2 +22.8 82 +35 +36 очень
душно
1007.7 921.9
12 14.06 З 1 20 км зарница 9/6 600 м
[Cb cap Cs]
+25.0 +23.0 89 +33 +33 очень
душно
1007.9 922.1 +28.4 0.3
18 14.06 СЗ 1 20 км 8/8 600 м
[Cu Sc]
+23.4 +21.7 90 +32 +32 очень
душно
1009.9 923.1
00 15.06 З 3 20 км 10/10 300 м
[Cu Sc]
+23.4 +22.6 95 +32 +32 очень
душно
1009.4 922.6 +22.0
06 15.06 З 4 20 км 9/3 600 м
[Cu med, cong Cs]
+26.9 +22.3 76 +35 +43 очень
душно
1007.8 922.0
12 15.06 З 2 20 км 9/8 600 м
[Cu med, cong Ac cuf]
+25.4 +22.9 86 +34 +34 очень
душно
1007.6 921.8 +28.2
18 15.06 З 2 10 км слаб. дождь туман 9/9 300 м
[Sc diur, vesp]
+22.4 +21.6 95 +30 +30 очень
душно
1009.9 922.5 2
00 16.06 СЗ 3 20 км {ливн. осадки, дождь} 10/10 600 м
[Cu Sc]
+21.7 +20.9 95 +28 +28 душно 1010.2 922.8 +21.3 23
06 16.06 З 3 20 км {дождь} 10/10 600 м
[Cu Sc]
+25.3 +22.4 84 +33 +33 очень
душно
1007.5 921.7 0.0
12 16.06 З 1 20 км зарница 9/6 600 м
[Cb cap Cs]
+24.8 +23.0 90 +33 +33 очень
душно
1008.3 921.9 +27.2 0.0
18 16.06 З 2 10 км слаб. дождь 9/9 300 м
[Cu Sc]
+22.5 +22.2 98 +30 +30 очень
душно
1010.0 922.6 0.3
00 17.06 З 4 10 км в посл. час дождь {ливн. осадки} 10/10 300 м
[Cu Sc]
+21.8 +21.5 98 +28 +28 душно 1010.8 923.4 +21.3 18
06 17.06 З 2 20 км в посл. час дождь 9/9 600 м
[Cu Sc]
+24.0 +22.3 90 +31 +33 очень
душно
1008.2 921.8 4
09 17.06 З 4 20 км 8/8 600 м
[Cb cap]
+27.0 +21.7 73 +35 +36 очень
душно
1006.2 921.0
12 17.06 З 3 2000 м сильн. ливневой дождь 10/10 300 м
[Cb cap]
+21.8 +21.6 99 +28 +28 душно 1010.1 922.7 +28.3 16
15 17.06 З 2 10 км слаб. дождь 10/10 300 м
[Cu Sc]
+21.7 +21.5 99 +28 +28 душно 1011.6 924.2
18 17.06 З 4 10 км слаб. дождь 10/10 300 м
[Cu Sc]
+21.1 +20.9 99 +26 +26 душно 1010.8 923.4 5

 

Местоположение метеостанции Плейку (Вьетнам): широта 13.98 долгота 108.00 высота над уровнем моря 801 м.

В архиве по умолчанию представлена погода в Плейку за последнюю неделю. Архивные данные за месяц целиком и за предыдущие месяцы, начиная с января 2011 года, Вы можете получить, выбрав интересующий диапазон дат из раскрывающегося списка и нажав кнопку "Ввод!".


*Определитесь, кто Вы:
робот инопланетянин человек

Внимание! Время в таблицах - всемирное. Для получения местного времени необходимо прибавить поправку, которая равна 7 ч.

Смотрите также архив погоды в соседних городах и на ближайших метеорологических станциях:

Погода в Куинёне (Вьетнам) (133 км)
Погода в Буонметхуоте (Вьетнам) (145 км)
Погода в Куангнгае (Вьетнам) (153 км)
Погода в Аттапы (Лаос) (158 км)
Погода в Секонге (Лаос) (204 км)
Погода в Дананге (Вьетнам) (235 км)
Погода в Нячанге (Вьетнам) (236 км)
Погода в Сараване (Лаос) (257 км)
Погода в Паксе (Лаос) (271 км)
Погода в Хюэ (Вьетнам) (276 км)

Пояснения к столбцам:

Ветер - указаны скорость ветра в м/с - средняя за 10 мин, порывы в срок и между сроками (в фигурных скобках) и направление, откуда дует ветер: С - северный, СВ - северо-восточный, В - восточный, ЮВ - юго-восточный, Ю - южный, ЮЗ - юго-западный, З - западный, СЗ - северо-западный.
Видимость - горизонтальная дальность видимости в метрах или километрах. При видимости от 1 до 10 км при отсутствии осадков обычно наблюдается дымка, при ухудшении видимости до 1 км и менее - туман. В сухую погоду видимость может ухудшаться дымом, пылью или мглою.
Явления - указаны атмосферные явления, наблюдавшиеся в срок или в последний час перед сроком; фигурными скобками обозначены явления, наблюдавшиеся между сроками (за 1-3 часа до срока); квадратными скобками обозначены град или гололедные отложения с указанием их диаметра в мм.
Облачность - указаны через наклонную черту общая и нижняя облачность в баллах и высота нижней границы облаков в метрах; квадратными скобками обозначены формы облаков: Ci - перистые, Cs - перисто-слоистые, Cc - перисто-кучевые, Ac - высококучевые, As - высокослоистые, Sc - слоисто-кучевые, Ns - слоисто-дождевые, Cu - кучевые, Cb - кучево-дождевые. Подробнее классификацию облаков см. в Атласе облаков (PDF).
T - Температура воздуха - температура, измеренная на высоте 2 м над землей.
Td - Температура точки росы - температура, при понижении до которой содержащийся в воздухе водяной пар достигнет насыщения.
f - Относительная влажность воздуха - влажноcть воздуха, измеренная на высоте 2 м над землей.
Te - Эффективная температура - температура, которую ощущает одетый по сезону человек в тени. Характеристика душности погоды. При расчете учитывается влияние влажности воздуха и скорости ветра на теплоощущения человека.
Tes - Эффективная температура на солнце - температура, которую ощущает человек, с поправкой на солнечный нагрев. Характеристика знойности погоды. Зависит от высоты солнца над горизонтом, облачности и скорости ветра. Ночью, в пасмурную погоду, а также при ветре 12 м/с и более поправка равна нулю.
P - Атмосферное давление - приведенное к уровню моря атмосферное давление.
Po - Атмосферное давление - измеренное на уровне метеостанции атмосферное давление.
Tmin - Минимальная температура - минимум температуры воздуха на высоте 2 м над землей.
Tmax - Максимальная температура - максимум температуры воздуха на высоте 2 м над землей.
R - Количество осадков - Количество выпавших осадков за период времени, мм. При наведении курсора мыши на число - период времени, за который выпало указанное количество осадков.
R24 - Количество осадков - Количество выпавших осадков за 24 часа, мм.
S - Снежный покров - Высота снежного покрова, см. При наведении курсора мыши на число - состояние снежного покрова и степень покрытия местности в баллах.